Regional Weather Roundup
Issued by NWS

Home | Current Version | Previous Version | Text Only | Print | Product List | Glossary On
Versions: 1 2 3 4 5 6 7 8 9 10 11 12 13 14 15 16 17 18 19 20 21 22 23 24 25 26 27 28 29 30 31 32 33 34 35 36 37 38 39 40 41 42 43 44 45 46 47 48 49 50
000
ASUS43 KDTX 282001
RWRMI
MICHIGAN HOURLY REGIONAL WEATHER ROUNDUP
NATIONAL WEATHER SERVICE DETROIT/PONTIAC MI
400 PM EDT MON JUL 28 2014

NOTE: "FAIR" INDICATES FEW OR NO CLOUDS BELOW 12,000 FEET WITH NO
SIGNIFICANT WEATHER AND/OR OBSTRUCTION TO VISIBILITY.

MIZ047>049-052>055-059>063-066>070-074>076-081>083-282100-
SOUTHEAST LOWER MICHIGAN

CITY           SKY/WX    TMP DP  RH WIND       PRES   REMARKS
ADRIAN         PTSUNNY   69  52  54 N12       29.95R
ALMA           CLOUDY    64  47  54 NW14      29.99R
ANN ARBOR      CLOUDY    68  49  50 N14       29.95R
BAD AXE        CLOUDY    59  46  60 N13G21    29.98R
CARO           CLOUDY    61  52  71 N8        29.97R
DETROIT CITY   CLOUDY    69  50  50 N12       29.93R
DETROIT        CLOUDY    67  51  56 N13       29.94R
FLINT          CLOUDY    64  50  60 N13       29.96R
GROSSE ILE     CLOUDY    70  52  52 NW12      29.92R
HILLSDALE      PTSUNNY   69  55  61 N13G18    29.97R
HOWELL         CLOUDY    66  52  60 NW8       29.96R

CITY           SKY/WX    TMP DP  RH WIND       PRES   REMARKS
JACKSON        PTSUNNY   68  54  60 VRB7      29.96R
LAMBERTVILLE   PTSUNNY   72  52  49 N12G18    29.94R
LANSING        CLOUDY    67  51  56 NW10      29.97S
LAPEER         CLOUDY    60  50  69 N13       29.96R
MASON          CLOUDY    65  53  64 N6        29.96S
MONROE         CLOUDY    66  54  63 N9        29.92R
MT. CLEMENS    PTSUNNY   65  52  60 N12       29.92R
PONTIAC        PTSUNNY   64  50  60 N13       29.94S
PORT HOPE        N/A     61  49  64 CALM      29.96R
PORT HURON     CLOUDY    59  52  77 N10G18    29.95R
TRI CITIES     CLOUDY    66  49  54 N16       29.98R
TROY           CLOUDY    65  51  62 N13       29.95S
SAGINAW HB     CLOUDY    63  50  63 N15       29.97R
$$
MIZ043>046-050>051-056>058-064>065-071>073-077>080-282100-
SOUTHWEST LOWER MICHIGAN

CITY           SKY/WX    TMP DP  RH WIND       PRES   REMARKS
BATTLE CREEK   PTSUNNY   68  51  54 NW9G21    29.99R
BENTON HARBOR  PTSUNNY   60  48  64 VRB7G18   30.06R
BIG RAPIDS     PTSUNNY   63  46  54 N14G24    30.02R
COLDWATER      MOSUNNY   70  52  52 NW13      29.97S
FREMONT        MOCLDY    65  45  46 N12G20    30.01S
HOLLAND        SUNNY     64  51  62 NW14G23   30.03R
GRAND RAPIDS   PTSUNNY   69  50  50 NW13      29.99R
IONIA          FAIR      67  50  55 NW10      29.97S
KALAMAZOO      PTSUNNY   66  52  60 NW7       30.00S
LUDINGTON      SUNNY     62  48  60 N14G20    30.06R
MARSHALL       CLOUDY    68  53  58 NW6G16    29.97S
MOUNT PLEASANT CLOUDY    64  48  55 NW9G16    30.00R
MUSKEGON       PTSUNNY   68  48  48 N16       30.02R
SOUTH HAVEN    SUNNY     59  51  75 N12G28    30.05R
$$
MIZ016>042-282100-
NORTHERN LOWER MICHIGAN

CITY           SKY/WX    TMP DP  RH WIND       PRES   REMARKS
ALPENA         CLOUDY    64  46  52 NW13      29.98S
BEAVER ISLAND  SUNNY     66  49  53 CALM      30.03R
BELLAIRE       CLOUDY    65  46  50 N9        30.02S
CADILLAC       PTSUNNY   61  47  60 N13G22    30.02F
CHARLEVOIX     SUNNY     66  47  51 NW10      30.05S
FRANKFORT      PTSUNNY   64  45  49 NW8       30.06S
GAYLORD        PTSUNNY   59  46  62 NW8       30.02R
GRAYLING       CLOUDY    62  45  53 N10       30.02S
HARBOR SPRINGS CLOUDY    65  45  48 N6        30.01R
HOUGHTON LAKE  CLOUDY    62  44  51 N9G18     30.02S
MANISTEE       SUNNY     61  46  59 NW13G18   30.06S
OSCODA         CLOUDY    64  45  50 NW12      29.97S
PELLSTON       CLOUDY    66  46  48 NE9       30.01S
ROGERS CITY    CLOUDY    62  50  65 NW8G17    30.00S
TRAVERSE CITY  MOSUNNY   64  45  49 NE9       30.03S
$$
MIZ007>008-015-282100-
EASTERN UPPER MICHIGAN

CITY           SKY/WX    TMP DP  RH WIND       PRES   REMARKS
KINROSS        SUNNY     63  46  55 N16G24    30.00R
MACKINAC ISLAN SUNNY     66  47  49 N14G20    30.00S
NEWBERRY       SUNNY     65  48  53 NW8G16    30.01S
S. S. MARIE    SUNNY     62  44  51 NW14G23   30.00R
MUNISING         N/A     65  47  52 NW10      30.04S
$$
MIZ004>006-011>014-085-282100-
CENTRAL UPPER MICHIGAN

CITY           SKY/WX    TMP DP  RH WIND       PRES   REMARKS
MANISTIQUE     MOSUNNY   71  49  45 NW13G20   30.02S
ESCANABA       MOSUNNY   72  45  37 N10G21    30.04S
MENOMINEE      PTSUNNY   68  52  56 S6        30.03F
$$
MIZ001>003-009>011-084-282100-
WESTERN UPPER MICHIGAN

CITY           SKY/WX    TMP DP  RH WIND       PRES   REMARKS
IRON MOUNTAIN  CLOUDY    70  47  43 N14G22    30.05S
COPPER HARBOR    N/A     66  55  67 N13       30.02F
$$

ABBREVIATIONS USED IN REMARKS
   TC - TEMPERATURE IN CELSIUS
  WCI - WIND CHILL INDEX
   HX - HEAT INDEX
  VSB - VISIBILITY



USA.gov is the U.S. government's official web portal to all federal, state and local government web resources and services.